Temperature
8 7 7 7 8 8 8 9 10 10 9 11 11 10 9 8 8 7 7 7 7 8 8 8 8 7 7 7 7 7 7 7 6 6 6 6 6 6 5 5 5 5 5 5
6 7 6 6 7 7 7 8 8 9 9 11 10 8 8 8 7 7 7 7 7 7 7 7 7 7 7 7 7 6 6 6 6 6 6 6 6 5 5 5 5 5 5 4
8 7 7 8 8 8 7 8 8 9 10 10 8 8 8 7 7 7 7 7 7 7 7 7 7 7 6 6 6 6 6 6 6 6 5 5 5 5 5 5 4 4 4 4
7 7 7 10 8 8 8 8 8 8 9 8 8 7 7 7 7 7 7 7 7 6 6 6 6 6 6 6 5 5 5 5 5 5 5 5 5 5 4 4 4 4 4 4
6 7 9 9 7 6 7 8 8 7 8 7 6 6 7 7 6 6 6 6 6 6 6 6 6 5 5 5 5 5 5 5 5 4 4 4 4 4 4 4 4 3 3 3
6 6 8 10 7 5 7 8 8 7 7 6 6 8 9 7 7 6 6 6 6 6 5 5 5 5 5 5 5 5 5 4 4 4 4 4 4 4 3 3 3 3 3 3
5 6 8 8 5 5 8 10 7 6 6 5 6 7 7 6 6 6 6 5 5 5 5 5 5 5 4 4 4 4 4 4 4 4 3 3 3 3 3 3 3 2 2 2
5 5 7 7 5 7 9 7 6 6 6 5 6 6 6 6 5 5 5 5 5 5 4 4 4 4 4 4 4 4 4 4 3 3 3 3 3 2 2 2 2 2 2 2
6 8 7 6 6 6 6 6 6 6 6 5 5 5 5 5 5 5 5 4 4 4 4 4 4 3 3 4 3 3 3 3 3 3 3 3 2 2 2 2 2 1 1 1
5 6 6 5 5 5 6 5 6 6 5 5 5 5 5 4 4 4 4 4 4 4 3 3 3 3 3 3 3 3 3 3 3 2 2 2 2 2 1 1 1 1 1 1
4 6 5 5 5 6 5 5 5 5 5 5 4 4 4 4 4 4 4 3 3 3 3 3 3 3 3 3 2 2 2 2 2 2 2 2 1 1 1 1 1 0 0 0
6 7 6 6 6 6 5 5 5 4 4 4 4 4 3 3 3 3 3 3 3 3 3 2 2 2 2 2 2 2 2 2 2 1 1 1 1 1 1 0 0 0 -0 -1
6 6 5 5 5 5 4 4 4 4 3 3 3 3 3 3 3 2 2 2 2 2 2 2 2 2 2 2 2 1 1 1 1 1 1 0 0 -0 -0 -0 -0 -0 -1 -1
4 4 3 4 4 4 3 3 3 3 3 3 3 2 2 2 2 2 2 2 2 2 2 2 2 2 1 1 1 1 1 1 0 0 0 -0 -0 -1 -1 -1 -1 -1 -1 -1
3 3 3 3 3 3 3 2 2 2 2 2 2 2 2 2 2 2 1 1 1 1 1 1 1 1 1 1 0 0 0 0 -0 -0 -1 -1 -1 -1 -1 -1 -2 -2 -2 -2
3 2 2 2 2 2 2 2 1 2 2 1 1 1 1 1 1 1 1 1 1 1 1 1 1 1 0 0 0 0 -0 -0 -1 -1 -1 -1 -1 -2 -2 -2 -2 -2 -2 -2
1 1 1 1 1 1 1 1 1 1 1 1 1 1 1 1 1 1 1 1 0 0 0 0 0 0 0 -0 -0 -0 -0 -1 -1 -1 -1 -2 -2 -2 -2 -2 -2 -2 -3 -3
1 1 1 1 1 1 1 1 1 1 1 1 0 0 0 0 0 0 0 0 0 0 0 -0 -0 -0 -0 -1 -1 -1 -1 -1 -1 -1 -2 -2 -2 -2 -2 -3 -3 -3 -3 -3
1 1 1 0 0 0 0 0 0 0 0 0 -0 -0 -0 -0 -0 -0 -0 -0 -0 -0 -0 -0 -1 -1 -1 -1 -1 -1 -2 -2 -2 -2 -2 -2 -2 -2 -3 -3 -3 -3 -3 -3
0 0 0 -0 -0 -0 -0 -0 -0 -0 -0 -0 -0 -0 -0 -0 -1 -1 -1 -1 -1 -1 -1 -1 -1 -1 -1 -1 -2 -2 -2 -2 -2 -2 -3 -3 -3 -3 -3 -3 -3 -3 -4 -4
-0 -0 -0 -0 -0 -0 -0 -1 -1 -1 -1 -1 -1 -1 -1 -1 -1 -1 -1 -1 -1 -1 -2 -2 -2 -2 -2 -2 -2 -2 -2 -3 -3 -3 -3 -3 -3 -3 -3 -3 -3 -4 -4 -4
-1 -1 -1 -1 -1 -1 -1 -1 -1 -1 -1 -1 -1 -1 -1 -1 -1 -2 -2 -2 -2 -2 -2 -2 -2 -2 -2 -2 -3 -3 -3 -3 -3 -3 -3 -3 -3 -3 -3 -4 -4 -4 -4 -4
-1 -1 -1 -1 -1 -1 -1 -1 -1 -1 -1 -1 -2 -2 -2 -2 -2 -2 -2 -2 -2 -2 -2 -2 -2 -3 -3 -3 -3 -3 -3 -3 -3 -3 -3 -4 -4 -4 -4 -4 -4 -4 -4 -5
-1 -1 -1 -1 -2 -2 -1 -1 -2 -2 -2 -2 -2 -2 -2 -2 -2 -2 -2 -2 -3 -3 -3 -3 -3 -3 -3 -3 -3 -3 -3 -3 -3 -3 -4 -4 -4 -4 -4 -4 -4 -4 -5 -5
-2 -2 -2 -2 -2 -2 -2 -2 -2 -2 -2 -2 -2 -2 -2 -3 -3 -3 -3 -3 -3 -3 -3 -3 -3 -3 -3 -3 -3 -3 -3 -4 -4 -4 -4 -4 -4 -4 -4 -4 -5 -5 -5 -5
-2 -2 -2 -2 -2 -2 -2 -3 -3 -3 -3 -3 -3 -3 -3 -3 -3 -3 -3 -3 -3 -4 -4 -4 -4 -4 -4 -4 -4 -4 -4 -4 -4 -4 -4 -4 -4 -5 -5 -5 -5 -5 -5 -5
-3 -3 -3 -3 -3 -3 -3 -3 -3 -3 -3 -3 -3 -3 -3 -4 -4 -4 -4 -4 -4 -4 -4 -4 -4 -4 -4 -4 -4 -4 -4 -4 -4 -4 -4 -4 -4 -5 -5 -5 -5 -5 -5 -5
Wind_Speed
8 8 7 9 10 11 13 12 9 9 11 12 9 7 6 5 5 5 5 5 4 3 3 3 3 3 3 3 3 3 4 4 5 5 5 5 5 5 5 5 6 6 6 6
6 6 8 11 15 15 15 14 16 16 15 11 7 6 6 6 6 7 7 6 5 5 4 4 4 3 3 3 3 3 4 4 4 4 4 5 5 5 5 5 5 6 6 6
5 4 7 10 11 14 10 11 11 14 11 5 5 7 7 7 7 7 7 7 6 6 5 5 5 4 4 4 3 4 4 4 4 4 4 4 4 5 5 6 5 6 6 7
4 4 8 3 1 6 10 10 12 11 9 7 7 6 6 6 7 7 6 6 6 6 6 5 4 4 4 4 4 4 4 4 4 4 4 4 5 5 6 5 6 6 6 7
3 6 10 6 3 5 6 7 9 12 10 7 4 4 5 5 6 6 6 6 6 5 5 5 5 4 4 4 4 4 5 5 4 4 5 5 5 6 6 6 6 6 6 7
5 6 7 2 2 3 3 5 3 7 8 5 3 4 4 1 3 4 5 4 4 4 5 5 5 4 4 5 5 5 5 5 4 5 5 6 6 6 5 6 6 6 6 6
10 9 9 3 4 5 5 2 1 4 6 6 7 6 3 2 4 4 4 4 4 4 5 5 4 4 5 5 6 5 4 4 5 5 5 6 6 5 5 5 6 6 6 6
8 9 9 5 7 7 4 2 2 4 5 7 8 6 5 5 5 4 4 4 4 4 5 4 4 4 6 6 5 4 4 5 5 5 5 4 5 5 5 5 6 6 6 6
10 9 2 6 7 5 3 4 5 5 6 6 7 7 7 7 6 6 5 5 4 5 5 4 4 5 7 6 4 4 5 5 5 5 5 4 5 5 5 5 5 5 5 5
9 11 10 10 10 9 8 8 8 7 7 7 8 9 9 8 7 7 6 5 5 5 6 6 5 6 7 6 4 5 5 5 5 5 5 5 5 5 5 5 5 6 6 6
11 11 9 10 12 12 10 9 8 8 8 9 9 10 10 8 8 7 6 6 5 6 7 7 6 6 6 6 5 6 6 6 5 5 5 5 5 5 6 7 7 7 6 6
13 11 9 10 8 8 9 10 9 9 9 9 9 10 10 9 8 7 7 7 7 7 8 8 7 7 6 5 6 6 6 6 5 4 4 5 5 5 7 9 10 12 12 10
15 11 12 11 8 8 8 9 9 9 10 10 9 9 9 9 8 7 8 8 8 8 8 7 7 7 6 5 6 7 7 6 5 5 5 5 5 6 6 6 9 12 13 13
13 10 11 10 10 9 8 8 8 8 9 9 8 8 7 8 8 8 9 8 8 7 8 7 8 8 7 6 6 7 8 7 7 6 6 6 6 6 6 6 6 6 7 10
13 13 12 9 8 7 6 5 6 8 7 7 7 7 7 8 9 9 8 7 7 7 8 8 8 9 6 6 7 8 7 6 6 6 6 6 6 6 6 7 7 7 6 7
9 9 9 9 9 8 6 7 8 9 8 8 7 8 8 8 8 8 8 7 7 8 8 8 9 8 6 6 7 7 7 8 8 6 6 6 6 7 7 7 7 7 7 7
7 8 8 8 9 8 8 8 8 8 8 8 8 8 7 7 8 8 8 7 8 9 8 9 9 7 6 7 7 6 6 7 8 7 7 7 7 7 7 7 8 8 8 8
9 9 8 8 8 8 8 7 7 8 7 7 7 6 7 7 8 8 7 7 7 8 8 8 8 7 7 7 7 6 6 6 6 7 7 7 7 7 7 8 9 9 8 8
6 6 6 6 6 6 6 7 7 7 6 5 6 6 7 7 7 7 6 6 7 9 8 6 7 7 7 8 7 6 7 7 7 7 7 8 8 8 8 8 8 9 8 8
3 4 4 5 5 5 6 6 6 6 5 5 5 6 6 7 6 6 6 7 8 7 6 6 6 7 7 7 7 6 7 7 7 7 7 7 8 8 8 8 9 8 8 8
2 3 3 4 4 5 5 5 5 6 5 5 5 6 7 7 6 5 6 7 7 6 6 8 6 6 6 6 7 6 7 7 7 7 7 8 8 8 8 9 8 8 8 8
3 3 3 4 4 5 5 4 5 5 5 5 6 6 6 7 7 6 7 7 7 7 6 6 6 7 8 8 6 6 7 8 8 7 8 8 8 8 9 9 8 8 8 8
4 4 4 5 5 5 5 5 5 5 6 6 7 7 7 7 6 6 7 6 5 7 7 7 8 10 11 8 7 7 8 8 8 8 8 8 8 8 8 9 8 8 8 8
5 5 5 5 4 5 7 7 6 6 7 7 7 8 7 7 7 6 7 8 9 10 8 9 11 12 11 7 7 7 8 8 8 8 8 8 8 8 8 8 8 8 8 8
6 6 5 5 5 6 7 7 6 7 7 6 8 8 7 7 7 7 7 7 9 10 8 9 12 12 8 7 7 8 8 8 8 7 8 8 8 8 8 8 7 7 7 7
6 6 6 7 7 7 6 6 6 6 6 7 7 6 6 5 7 7 7 8 9 10 8 7 7 7 6 7 7 8 8 8 8 8 8 8 8 8 8 7 8 7 7 6
6 6 6 6 6 6 6 6 7 7 7 7 8 7 6 6 6 7 8 7 7 7 7 7 6 6 6 6 7 7 7 7 7 7 7 7 7 7 7 8 7 6 6 6
Wind_Direction
265 270 261 257 251 230 225 233 245 253 254 260 259 258 254 246 241 241 241 236 232 236 244 251 261 270 277 275 266 253 247 248 253 256 254 253 252 249 246 242 243 244 245 244
270 258 261 263 253 240 238 240 246 259 267 267 264 254 251 247 242 241 242 240 239 243 250 255 259 268 274 274 269 258 253 257 264 263 259 255 254 252 249 249 247 245 246 246
272 290 287 264 243 222 219 219 224 239 250 254 248 246 248 249 244 242 244 245 243 244 250 257 259 260 266 270 267 257 255 260 262 261 260 260 258 255 254 253 251 250 251 251
281 290 252 267 133 212 225 238 230 245 259 255 258 267 260 255 247 246 249 249 252 254 258 262 261 259 264 263 258 256 258 261 264 263 263 264 260 258 258 255 251 251 252 254
245 265 274 276 218 195 215 256 232 235 247 256 273 278 258 246 242 251 256 258 261 262 262 261 259 256 255 257 257 255 258 262 264 264 265 264 261 261 260 256 254 252 253 253
229 249 258 280 137 167 203 257 218 220 239 238 206 247 261 228 242 259 269 266 266 266 263 257 255 247 249 257 259 259 261 264 265 263 262 263 264 264 260 256 256 257 256 255
229 244 263 258 138 155 220 283 113 222 230 214 220 252 301 281 266 266 271 272 268 263 258 257 254 244 253 260 262 266 266 265 264 261 261 264 266 261 257 255 257 257 259 259
207 226 250 164 157 202 261 340 271 247 232 228 243 264 271 270 272 272 274 274 269 264 264 263 248 243 254 261 266 265 261 262 265 265 264 260 259 259 254 252 255 258 260 264
209 227 281 183 214 242 269 267 269 263 255 242 251 260 263 265 269 267 262 264 262 260 269 268 252 244 254 264 266 259 257 260 265 266 261 253 250 252 252 250 252 259 260 264
247 257 258 253 253 256 253 257 266 266 262 251 256 262 262 262 266 265 257 253 254 258 263 268 260 252 255 264 260 252 256 262 263 262 263 257 250 244 245 248 251 255 259 263
250 264 274 258 247 251 253 253 258 259 255 251 254 258 259 261 262 262 260 258 252 252 259 266 266 261 260 260 249 249 254 256 257 256 259 261 257 252 250 250 249 254 257 258
251 252 251 267 266 253 250 254 255 257 262 258 251 255 258 259 261 262 261 257 254 255 257 262 263 262 261 254 242 244 252 255 255 256 258 260 265 269 247 249 259 256 258 260
256 266 262 271 266 256 255 260 258 253 256 261 258 256 255 258 260 259 258 256 255 256 257 260 260 262 259 249 238 239 247 253 256 256 258 260 261 265 277 267 252 254 255 258
250 257 262 260 261 260 259 262 264 263 262 259 260 258 255 259 261 258 257 257 257 258 259 260 260 262 260 247 238 240 245 246 245 251 252 254 255 258 261 269 277 274 259 257
244 242 250 261 263 261 259 258 260 262 262 262 259 256 253 254 257 261 263 260 258 259 260 258 258 262 259 243 239 242 243 244 242 246 248 250 253 254 256 259 263 271 277 271
247 246 247 250 254 258 257 253 255 260 262 263 263 261 259 258 260 262 260 253 251 256 258 258 260 265 259 245 242 245 245 239 240 246 248 249 248 249 252 255 258 263 266 271
238 243 243 250 254 256 255 253 254 259 262 261 263 265 264 262 263 264 262 255 251 255 258 257 260 264 253 244 242 245 247 243 234 242 246 247 248 249 251 254 257 261 264 265
237 243 244 248 253 256 260 260 258 258 258 261 265 261 256 255 261 267 269 267 263 264 261 256 256 255 251 246 242 244 244 246 243 243 247 246 248 249 250 252 255 261 267 267
243 248 251 251 251 251 256 259 260 260 261 258 255 256 259 261 266 271 274 267 264 268 271 261 249 250 254 249 243 245 244 244 245 246 247 250 252 250 250 252 255 259 263 265
246 248 251 256 257 252 258 264 264 264 263 257 255 260 265 268 270 271 268 264 261 263 271 271 268 263 259 252 243 247 244 244 246 249 249 249 250 251 252 253 255 258 260 261
255 255 256 260 266 266 262 260 258 262 266 256 251 258 267 273 272 266 265 273 277 271 268 266 265 263 259 255 248 249 246 246 247 248 249 251 253 255 255 255 255 256 259 261
263 263 266 269 273 279 276 266 259 261 266 265 263 264 268 272 272 268 259 261 275 277 278 273 268 264 263 265 257 252 250 250 250 250 251 252 253 255 256 257 258 259 259 261
266 266 270 272 273 281 287 279 267 262 262 262 262 261 261 264 265 265 275 271 270 274 275 271 268 270 272 268 260 256 255 255 255 253 253 254 254 255 257 258 258 258 260 261
269 267 267 271 273 275 277 278 273 266 261 262 260 258 260 267 270 258 259 274 279 279 275 274 275 276 275 266 260 257 257 257 257 257 257 257 256 255 256 257 258 258 257 257
272 271 267 263 263 264 267 272 276 272 268 266 265 262 254 249 256 269 273 274 276 278 276 276 277 277 272 264 260 259 258 257 257 257 256 256 255 255 255 255 255 257 256 255
268 270 269 264 261 264 267 268 270 272 273 275 276 271 264 259 259 266 271 272 273 275 274 274 274 272 263 261 261 261 262 264 265 262 258 257 257 256 256 254 254 253 253 253
270 268 269 272 268 260 258 259 262 266 267 267 275 278 275 272 270 271 273 274 275 273 271 270 268 265 263 262 262 262 261 261 260 259 258 256 255 255 254 254 254 252 251 249
Height
1519 1518 1518 1516 1513 1514 1513 1507 1503 1496 1496 1491 1492 1495 1496 1496 1497 1497 1497 1497 1497 1497 1497 1497 1497 1497 1497 1496 1496 1495 1495 1494 1494 1493 1492 1491 1491 1490 1489 1489 1488 1487 1486 1485
1519 1517 1517 1513 1507 1507 1507 1505 1501 1497 1493 1488 1491 1493 1494 1494 1494 1494 1494 1494 1494 1494 1494 1494 1494 1493 1493 1492 1492 1491 1491 1490 1489 1488 1488 1487 1486 1485 1485 1484 1483 1482 1481 1480
1512 1514 1512 1501 1493 1496 1497 1495 1494 1491 1486 1487 1489 1490 1490 1490 1490 1490 1490 1490 1490 1490 1491 1490 1490 1489 1489 1489 1488 1487 1486 1486 1485 1484 1483 1483 1482 1481 1480 1479 1478 1477 1477 1476
1514 1513 1507 1487 1492 1491 1491 1490 1490 1487 1486 1487 1487 1487 1487 1487 1487 1487 1487 1487 1487 1487 1487 1486 1486 1485 1485 1484 1484 1483 1482 1481 1481 1480 1479 1478 1477 1476 1475 1475 1474 1473 1472 1471
1515 1505 1492 1486 1490 1491 1490 1485 1485 1485 1484 1485 1486 1486 1484 1484 1484 1484 1484 1483 1483 1483 1483 1482 1482 1481 1481 1480 1479 1479 1478 1477 1477 1476 1475 1474 1473 1472 1471 1470 1469 1468 1467 1466
1512 1507 1493 1482 1488 1489 1490 1482 1481 1482 1482 1483 1485 1483 1480 1481 1481 1480 1480 1480 1479 1479 1479 1478 1478 1477 1477 1476 1475 1475 1474 1473 1472 1471 1470 1469 1468 1467 1466 1465 1464 1463 1462 1461
1508 1502 1486 1483 1487 1489 1486 1476 1479 1479 1480 1481 1481 1480 1480 1478 1478 1478 1477 1476 1476 1475 1475 1474 1474 1473 1473 1472 1471 1471 1470 1469 1468 1467 1466 1465 1464 1463 1461 1460 1459 1458 1457 1456
1502 1500 1487 1482 1485 1484 1478 1478 1477 1477 1477 1478 1477 1477 1476 1476 1475 1474 1474 1473 1472 1471 1471 1470 1469 1469 1468 1468 1467 1467 1466 1465 1464 1463 1462 1460 1459 1458 1457 1455 1454 1453 1451 1450
1487 1480 1477 1478 1477 1477 1477 1476 1475 1475 1475 1475 1474 1474 1473 1472 1472 1471 1470 1469 1468 1467 1466 1466 1465 1465 1464 1464 1463 1462 1461 1460 1460 1459 1457 1456 1454 1453 1452 1450 1449 1447 1446 1444
1483 1475 1475 1475 1474 1474 1474 1473 1472 1472 1472 1471 1470 1470 1469 1468 1468 1467 1466 1465 1464 1463 1462 1461 1461 1460 1460 1459 1458 1457 1457 1456 1455 1454 1452 1451 1450 1448 1447 1445 1444 1442 1441 1439
1476 1472 1471 1469 1469 1469 1469 1468 1468 1468 1468 1467 1466 1465 1464 1464 1463 1462 1461 1461 1460 1459 1458 1457 1456 1455 1455 1454 1453 1452 1452 1451 1450 1449 1447 1446 1444 1443 1441 1440 1439 1437 1435 1434
1465 1464 1465 1463 1464 1464 1464 1463 1463 1463 1462 1461 1461 1460 1459 1458 1457 1457 1456 1455 1454 1453 1453 1452 1451 1450 1450 1449 1448 1447 1446 1446 1444 1443 1442 1440 1439 1437 1436 1435 1433 1432 1430 1429
1459 1459 1459 1458 1459 1459 1458 1458 1458 1457 1456 1456 1455 1454 1453 1452 1452 1451 1450 1450 1449 1448 1447 1446 1445 1445 1444 1444 1443 1442 1441 1440 1439 1438 1437 1435 1434 1432 1430 1429 1427 1426 1424 1423
1454 1455 1454 1453 1453 1453 1452 1452 1452 1451 1450 1450 1449 1448 1448 1447 1446 1445 1444 1444 1443 1442 1441 1441 1440 1439 1439 1438 1437 1436 1435 1434 1433 1432 1431 1429 1428 1426 1425 1423 1421 1419 1418 1417
1447 1448 1448 1447 1447 1447 1446 1446 1446 1445 1444 1443 1443 1442 1442 1441 1440 1439 1439 1438 1437 1436 1436 1435 1434 1434 1433 1432 1431 1430 1429 1429 1427 1426 1425 1424 1422 1421 1419 1417 1415 1414 1412 1411
1440 1441 1441 1441 1441 1441 1440 1440 1440 1439 1438 1438 1437 1437 1436 1435 1434 1433 1433 1432 1431 1431 1430 1429 1429 1428 1427 1426 1425 1424 1423 1422 1421 1420 1419 1417 1416 1415 1413 1412 1410 1408 1406 1405
1435 1434 1435 1435 1435 1435 1435 1435 1434 1434 1433 1432 1431 1431 1430 1429 1429 1428 1427 1427 1426 1425 1425 1424 1423 1422 1421 1420 1419 1418 1417 1416 1415 1414 1412 1411 1410 1408 1407 1406 1404 1402 1401 1399
1429 1429 1430 1430 1430 1430 1430 1430 1429 1429 1428 1427 1427 1426 1425 1424 1423 1423 1422 1421 1420 1420 1419 1418 1417 1416 1415 1414 1413 1412 1410 1409 1408 1407 1406 1405 1404 1402 1401 1399 1398 1396 1394 1393
1424 1425 1425 1425 1425 1425 1425 1425 1425 1424 1423 1423 1422 1421 1420 1419 1419 1418 1417 1416 1415 1413 1413 1412 1411 1410 1409 1408 1407 1405 1404 1402 1401 1400 1399 1398 1397 1396 1394 1393 1392 1390 1388 1387
1421 1421 1421 1421 1421 1421 1421 1421 1420 1420 1419 1418 1417 1416 1415 1415 1414 1413 1411 1410 1409 1408 1407 1406 1405 1404 1403 1402 1400 1398 1397 1396 1395 1393 1392 1391 1390 1389 1388 1387 1385 1384 1382 1381
1418 1418 1418 1418 1418 1418 1417 1417 1416 1415 1415 1414 1413 1412 1411 1410 1409 1408 1406 1404 1404 1403 1401 1400 1399 1398 1397 1395 1393 1392 1390 1389 1388 1387 1386 1385 1384 1383 1381 1380 1379 1377 1376 1375
1416 1416 1416 1416 1415 1414 1414 1413 1412 1411 1411 1410 1409 1408 1407 1405 1404 1403 1401 1400 1399 1397 1396 1394 1393 1392 1391 1389 1387 1386 1384 1383 1382 1381 1380 1379 1378 1376 1375 1374 1373 1371 1370 1369
1414 1413 1413 1413 1412 1411 1410 1409 1408 1407 1406 1405 1404 1403 1402 1401 1399 1398 1396 1395 1394 1392 1390 1389 1387 1386 1384 1383 1381 1379 1378 1377 1376 1375 1374 1373 1372 1370 1369 1368 1367 1365 1364 1363
1410 1410 1409 1409 1408 1407 1405 1405 1404 1403 1401 1400 1399 1398 1397 1395 1393 1392 1391 1389 1388 1386 1384 1382 1381 1380 1378 1376 1375 1373 1372 1371 1370 1368 1367 1366 1365 1364 1363 1361 1360 1359 1358 1357
1406 1406 1405 1404 1403 1401 1400 1399 1398 1397 1396 1394 1393 1392 1391 1389 1388 1386 1384 1382 1381 1379 1377 1376 1375 1373 1372 1370 1369 1367 1366 1365 1363 1362 1361 1360 1359 1358 1356 1355 1354 1353 1352 1351
1402 1401 1400 1399 1398 1396 1395 1393 1392 1391 1389 1388 1386 1386 1384 1383 1381 1379 1378 1376 1374 1372 1371 1369 1368 1367 1365 1364 1363 1361 1360 1358 1357 1356 1355 1354 1353 1351 1350 1349 1348 1347 1346 1346
1396 1395 1394 1392 1391 1390 1389 1387 1386 1384 1383 1382 1380 1379 1378 1376 1375 1373 1371 1369 1367 1366 1364 1363 1362 1360 1359 1358 1356 1355 1354 1352 1351 1350 1349 1348 1347 1346 1345 1344 1343 1342 1341 1340